Regional Weather Roundup
Issued by NWS

Home | Current Version | Previous Version | Graphics & Text | Print | Product List | Glossary On
Versions: 1 2 3 4 5 6 7 8 9 10 11 12 13 14 15 16 17 18 19 20 21 22 23 24 25 26 27 28 29 30 31 32 33 34 35 36 37 38 39 40 41 42 43 44 45 46 47 48 49 50
000
ASUS44 KMEG 230310
RWRTN
TENNESSEE HOURLY STATE WEATHER ROUNDUP
NATIONAL WEATHER SERVICE MEMPHIS TN
1000 PM CDT TUE AUG 22 2017

TNZ002-004-019-021-049-052-054-088>092-230400-
WEST TENNESSEE

CITY           SKY/WX    TMP DP  RH WIND       PRES   REMARKS
MEMPHIS INTL   CLOUDY    81  70  69 NE8       30.02R
NWS MEMPHIS      N/A     80 N/A N/A MISG        N/A
JACKSON        CLOUDY    73  72  96 SE5       30.03R
DYERSBURG      CLEAR     73  72  96 SE3       30.03R
SOMERVILLE     CLOUDY    77  72  83 CALM      30.02S
COVINGTON      CLEAR     73  72  94 CALM      30.02R
PARIS          CLEAR     70  70 100 CALM      30.01R FOG
HUNTINGDON     CLEAR     72  72 100 CALM      30.01R
LEXINGTON      MOCLDY    73  72  94 CALM      30.02R FOG
SELMER         MOCLDY    75  73  94 CALM      30.02S
SAVANNAH       CLOUDY    72  70  94 CALM      30.02R
$$

TNZ008-025-027-028-033-062-065-066-230400-
NORTH MIDDLE TENNESSEE

CITY           SKY/WX    TMP DP  RH WIND       PRES   REMARKS
NASHVILLE      CLOUDY    74  71  91 W6        30.00R
PORTLAND       CLOUDY    73  72  94 CALM      29.99S
CLARKSVILLE    CLOUDY    72  70  93 W3        30.00R
SMYRNA         CLOUDY    73  71  93 W8        30.00S THUNDER
COOKEVILLE       N/A     75  72  88 NW8       29.99R
GALLATIN       CLOUDY    73  72  94 CALM      30.01S FOG
CROSSVILLE     MOCLDY    75  67  76 CALM      30.02F
$$

TNZ061-075-076-078-094-096-097-230400-
SOUTH MIDDLE TENNESSEE

CITY           SKY/WX    TMP DP  RH WIND       PRES   REMARKS
FAYETTEVILLE   MOCLDY    73  72  94 CALM      30.03S
TULLAHOMA        N/A     70  68  94 S6        30.02F
WINCHESTER     PTCLDY    75  70  83 NW8       30.03R
MCMINNVILLE    MOCLDY    72  72 100 SW8       30.01R
COLUMBIA       MOCLDY    72  72 100 SW5       30.01R
SHELBYVILLE    MOCLDY    70  70 100 CALM      30.00F
$$

TNZ017-018-042-046-047-230400-
NORTHEAST TENNESSEE

CITY           SKY/WX    TMP DP  RH WIND       PRES   REMARKS
TRI CITIES     CLOUDY    72  67  84 CALM      29.99F
ELIZABETHTON   CLOUDY    70  66  88 CALM      30.01S
$$

TNZ012-013-036-069-073-074-230400-
CENTRAL EAST TENNESSEE

CITY           SKY/WX    TMP DP  RH WIND       PRES   REMARKS
KNOXVILLE      MOCLDY    78  68  71 SW9       29.97R
OAK RIDGE      CLOUDY    79  69  71 CALM      29.98R
DOWNTOWN KNOXV   N/A     81  70  69 W5        29.96R
GATLINBURG     CLEAR     75  64  69 CALM      29.97S
MORRISTOWN     PTCLDY    81  66  61 VRB6      29.98R
JACKSBORO      PTCLDY    73  73 100 CALM      30.01S
$$

TNZ083-085-099-230400-
SOUTHEAST TENNESSEE

CITY           SKY/WX    TMP DP  RH WIND       PRES   REMARKS
CHATTANOOGA    PTCLDY    82  72  71 S5        29.99S
DAYTON         CLOUDY    77  73  88 CALM      29.96S
$$

SKY/WX REPORTED AS FAIR MEANS FEW OR NO CLOUDS BELOW
12 THOUSAND FEET.





USA.gov is the U.S. government's official web portal to all federal, state and local government web resources and services.